Tracking 30743 objects as of 22-Jun-2025
HD Live streaming from Space Station
objects crossing your sky now

WESTFORD NEEDLES

Track WESTFORD NEEDLES now!
10-day predictions
WESTFORD NEEDLES is classified as:


NORAD ID: 628
Int'l Code: 1963-014F
Perigee: 3,646.0 km
Apogee: 3,685.9 km
Inclination: 87.3 °
Period: 166.8 minutes
Semi major axis: 10036 km
RCS: 0.4773 m2 (medium)
Launch date: May 9, 1963
Source: United States (US)
Launch site: AIR FORCE WESTERN TEST RANGE (AFWTR)
Your satellite tracking list
Your tracking list is empty




NASA's NSSDC Master Catalog

Two Line Element Set (TLE):
1   628U 63014F   25172.55803213  .00000003  00000-0  00000+0 0  9996
2   628  87.3191 237.3792 0019879 110.2101 250.0892  8.63371808958114
Source of the keplerian elements: AFSPC